When you browse on this site, cookies collect data to enhance your experience and personalize the content and advertising you see.
Visit our Privacy Policy to learn more. By continuing to use the site, you agree to this use of cookies and data.
  • In Österreich
  • Länderverzeichnis
  • Für 7 Tage
  • Wassertemperatur
  • Satellitenkarten
  • Wetterkarte
  • News
  • Widgets
  • user-avatar
    Anmelden

    Stündliche Wetter Corvallis

    Heute, 24 Juni, Montag

    Zeit Temperatur Niederschläge Wind Luftdruck Luftfeuchtigkeit
    00:00 +11°C° 0 mm 1 m/S 758 mmHg 92%
    01:00 +10°C° 0 mm 1 m/S 758 mmHg 92%
    02:00 +10°C° 0 mm 1 m/S 758 mmHg 93%
    03:00 +10°C° 0 mm 1 m/S 758 mmHg 93%
    04:00 +9°C° 0 mm 1 m/S 757 mmHg 95%
    05:00 +11°C° 0 mm 1 m/S 757 mmHg 89%
    06:00 +12°C° 0 mm 1 m/S 757 mmHg 84%
    07:00 +14°C° 0 mm 1 m/S 757 mmHg 78%
    08:00 +15°C° 0 mm 2 m/S 756 mmHg 71%
    09:00 +17°C° 0 mm 2 m/S 756 mmHg 64%
    10:00 +19°C° 0 mm 2 m/S 756 mmHg 57%
    11:00 +20°C° 0 mm 2 m/S 755 mmHg 53%
    12:00 +22°C° 0 mm 1 m/S 755 mmHg 49%
    13:00 +24°C° 0 mm 1 m/S 754 mmHg 45%
    14:00 +24°C° 0 mm 1 m/S 754 mmHg 45%
    15:00 +24°C° 0 mm 1 m/S 754 mmHg 46%
    16:00 +24°C° 0 mm 1 m/S 754 mmHg 46%
    17:00 +22°C° 0 mm 1 m/S 754 mmHg 52%
    18:00 +19°C° 0 mm 2 m/S 754 mmHg 59%
    19:00 +17°C° 0 mm 2 m/S 754 mmHg 66%
    20:00 +15°C° 0 mm 1 m/S 754 mmHg 70%
    21:00 +14°C° 0 mm 1 m/S 754 mmHg 75%
    22:00 +12°C° 0 mm 1 m/S 754 mmHg 79%
    23:00 +11°C° 0 mm 1 m/S 754 mmHg 81%

    Morgen, 25 Juni, Dienstag

    Zeit Temperatur Niederschläge Wind Luftdruck Luftfeuchtigkeit
    00:00 +11°C° 0 mm 1 m/S 754 mmHg 82%
    01:00 +10°C° 0 mm 1 m/S 754 mmHg 83%
    02:00 +10°C° 0 mm 1 m/S 754 mmHg 85%
    03:00 +10°C° 0 mm 1 m/S 753 mmHg 86%
    04:00 +9°C° 0 mm 1 m/S 753 mmHg 87%
    05:00 +11°C° 0 mm 1 m/S 753 mmHg 81%
    06:00 +12°C° 0 mm 1 m/S 753 mmHg 75%
    07:00 +14°C° 0 mm 1 m/S 753 mmHg 70%
    08:00 +16°C° 0 mm 1 m/S 753 mmHg 63%
    09:00 +19°C° 0 mm 1 m/S 753 mmHg 57%
    10:00 +21°C° 0 mm 1 m/S 753 mmHg 51%
    11:00 +20°C° 0 mm 2 m/S 752 mmHg 52%
    12:00 +21°C° 0 mm 2 m/S 752 mmHg 53%
    13:00 +21°C° 0 mm 2 m/S 752 mmHg 55%
    14:00 +21°C° 0.1 mm 2 m/S 752 mmHg 55%
    15:00 +21°C° 0.1 mm 3 m/S 752 mmHg 54%
    16:00 +21°C° 0.1 mm 3 m/S 752 mmHg 54%
    17:00 +20°C° 0 mm 3 m/S 752 mmHg 59%
    18:00 +19°C° 0 mm 3 m/S 752 mmHg 64%
    19:00 +17°C° 0 mm 3 m/S 752 mmHg 69%
    20:00 +15°C° 0 mm 2 m/S 753 mmHg 77%
    21:00 +13°C° 0 mm 1 m/S 753 mmHg 85%
    22:00 +11°C° 0 mm 1 m/S 754 mmHg 93%
    23:00 +10°C° 0 mm 1 m/S 754 mmHg 94%

    übermorgen, 26 Juni, Mittwoch

    Zeit Temperatur Niederschläge Wind Luftdruck Luftfeuchtigkeit
    00:00 +10°C° 0 mm 1 m/S 754 mmHg 94%
    01:00 +9°C° 0 mm 1 m/S 753 mmHg 95%
    02:00 +9°C° 0 mm 1 m/S 753 mmHg 95%
    03:00 +8°C° 0 mm 0 m/S 753 mmHg 95%
    04:00 +8°C° 0 mm 0 m/S 753 mmHg 95%
    05:00 +9°C° 0 mm 0 m/S 753 mmHg 90%
    06:00 +11°C° 0 mm 0 m/S 753 mmHg 84%
    07:00 +13°C° 0 mm 0 m/S 753 mmHg 79%
    08:00 +14°C° 0 mm 0 m/S 753 mmHg 71%
    09:00 +16°C° 0 mm 0 m/S 753 mmHg 63%
    10:00 +18°C° 0 mm 0 m/S 752 mmHg 54%
    11:00 +20°C° 0.2 mm 1 m/S 753 mmHg 59%
    12:00 +18°C° 0.2 mm 2 m/S 753 mmHg 63%
    13:00 +18°C° 0.2 mm 3 m/S 753 mmHg 68%
    14:00 +17°C° 0.5 mm 3 m/S 753 mmHg 74%
    15:00 +16°C° 0.5 mm 3 m/S 753 mmHg 81%
    16:00 +14°C° 0.5 mm 2 m/S 753 mmHg 87%
    17:00 +14°C° 0.1 mm 2 m/S 754 mmHg 85%
    18:00 +14°C° 0.1 mm 1 m/S 754 mmHg 84%
    19:00 +14°C° 0.1 mm 1 m/S 754 mmHg 83%
    20:00 +13°C° 0.1 mm 1 m/S 755 mmHg 86%
    21:00 +12°C° 0.1 mm 1 m/S 755 mmHg 90%
    22:00 +10°C° 0.1 mm 1 m/S 756 mmHg 93%
    23:00 +10°C° 0 mm 1 m/S 756 mmHg 93%

    27 Juni, Donnerstag

    Zeit Temperatur Niederschläge Wind Luftdruck Luftfeuchtigkeit
    00:00 +11°C° 0 mm 1 m/S 756 mmHg 93%
    01:00 +11°C° 0 mm 1 m/S 756 mmHg 93%
    02:00 +11°C° 0 mm 1 m/S 756 mmHg 94%
    03:00 +11°C° 0 mm 1 m/S 756 mmHg 95%
    04:00 +11°C° 0 mm 1 m/S 756 mmHg 96%
    05:00 +12°C° 0 mm 1 m/S 756 mmHg 93%
    06:00 +12°C° 0 mm 1 m/S 756 mmHg 90%
    07:00 +13°C° 0 mm 1 m/S 756 mmHg 87%
    08:00 +15°C° 0.3 mm 1 m/S 756 mmHg 82%
    09:00 +16°C° 0.3 mm 2 m/S 756 mmHg 76%
    10:00 +17°C° 0.3 mm 2 m/S 756 mmHg 71%
    11:00 +18°C° 0.5 mm 2 m/S 756 mmHg 69%
    12:00 +18°C° 0.5 mm 2 m/S 756 mmHg 68%
    13:00 +19°C° 0.5 mm 2 m/S 756 mmHg 66%
    14:00 +19°C° 1 mm 2 m/S 756 mmHg 69%
    15:00 +19°C° 1 mm 2 m/S 756 mmHg 72%
    16:00 +19°C° 1 mm 2 m/S 756 mmHg 74%
    17:00 +18°C° 0.6 mm 2 m/S 756 mmHg 76%
    18:00 +17°C° 0.6 mm 2 m/S 756 mmHg 78%
    19:00 +16°C° 0.6 mm 1 m/S 756 mmHg 79%
    20:00 +14°C° 0.1 mm 1 m/S 757 mmHg 84%
    21:00 +13°C° 0.1 mm 1 m/S 757 mmHg 89%
    22:00 +11°C° 0.1 mm 1 m/S 757 mmHg 94%
    23:00 +11°C° 0 mm 1 m/S 757 mmHg 94%

    28 Juni, Freitag

    Zeit Temperatur Niederschläge Wind Luftdruck Luftfeuchtigkeit
    00:00 +11°C° 0 mm 1 m/S 757 mmHg 95%
    01:00 +11°C° 0 mm 1 m/S 757 mmHg 95%
    02:00 +11°C° 0.1 mm 1 m/S 757 mmHg 96%
    03:00 +11°C° 0.1 mm 1 m/S 757 mmHg 96%
    04:00 +11°C° 0.1 mm 1 m/S 757 mmHg 96%
    05:00 +12°C° 0.5 mm 1 m/S 757 mmHg 96%
    06:00 +12°C° 0.5 mm 1 m/S 757 mmHg 95%
    07:00 +13°C° 0.5 mm 1 m/S 757 mmHg 95%
    08:00 +14°C° 0.3 mm 1 m/S 757 mmHg 91%
    09:00 +15°C° 0.3 mm 1 m/S 757 mmHg 88%
    10:00 +16°C° 0.3 mm 1 m/S 757 mmHg 84%
    11:00 +16°C° 0.1 mm 2 m/S 757 mmHg 78%
    12:00 +17°C° 0.1 mm 3 m/S 757 mmHg 73%
    13:00 +18°C° 0.1 mm 3 m/S 757 mmHg 67%
    14:00 +17°C° 0.1 mm 3 m/S 757 mmHg 68%
    15:00 +17°C° 0.1 mm 3 m/S 757 mmHg 69%
    16:00 +17°C° 0.1 mm 3 m/S 757 mmHg 69%
    17:00 +16°C° 0 mm 3 m/S 757 mmHg 73%
    18:00 +16°C° 0 mm 2 m/S 757 mmHg 78%
    19:00 +15°C° 0 mm 1 m/S 757 mmHg 82%
    20:00 +14°C° 0 mm 1 m/S 757 mmHg 84%
    21:00 +14°C° 0 mm 1 m/S 758 mmHg 85%
    22:00 +14°C° 0 mm 2 m/S 758 mmHg 86%
    23:00 +13°C° 0 mm 2 m/S 758 mmHg 87%

    29 Juni, Samstag

    Zeit Temperatur Niederschläge Wind Luftdruck Luftfeuchtigkeit
    00:00 +13°C° 0 mm 2 m/S 758 mmHg 87%
    01:00 +13°C° 0 mm 2 m/S 758 mmHg 87%
    02:00 +13°C° 0 mm 2 m/S 758 mmHg 89%
    03:00 +12°C° 0 mm 2 m/S 759 mmHg 90%
    04:00 +12°C° 0 mm 2 m/S 759 mmHg 92%
    05:00 +13°C° 0 mm 2 m/S 759 mmHg 89%
    06:00 +14°C° 0 mm 1 m/S 759 mmHg 85%
    07:00 +15°C° 0 mm 1 m/S 759 mmHg 82%
    08:00 +16°C° 0 mm 1 m/S 759 mmHg 77%
    09:00 +18°C° 0 mm 1 m/S 759 mmHg 71%
    10:00 +20°C° 0 mm 1 m/S 759 mmHg 66%
    11:00 +20°C° 0 mm 1 m/S 759 mmHg 63%
    12:00 +21°C° 0 mm 1 m/S 758 mmHg 60%
    13:00 +22°C° 0 mm 1 m/S 758 mmHg 58%
    14:00 +22°C° 0 mm 1 m/S 758 mmHg 56%
    15:00 +23°C° 0 mm 2 m/S 758 mmHg 55%
    16:00 +23°C° 0 mm 2 m/S 758 mmHg 54%
    17:00 +21°C° 0 mm 2 m/S 758 mmHg 59%
    18:00 +19°C° 0 mm 2 m/S 758 mmHg 65%
    19:00 +18°C° 0 mm 2 m/S 758 mmHg 71%
    20:00 +16°C° 0 mm 2 m/S 759 mmHg 78%
    21:00 +14°C° 0 mm 1 m/S 759 mmHg 85%
    22:00 +12°C° 0 mm 1 m/S 760 mmHg 92%
    23:00 +11°C° 0 mm 1 m/S 760 mmHg 93%
    Mehr zeigen